Location: Waco, TX
(31.5480°N, 97.1670°W)
Time: 20:08:37
(UTC-05:00)

ISS - Pass Details

Date: 16 September 2018
Orbit: 402 x 408 km, 51.6° (Epoch: 20 September)

Event Time Altitude Azimuth Distance (km) Brightness Sun altitude
Rises 23:56:35 0° 265° (W) 2,320 - -50.0°
Reaches altitude 10° 23:59:23 10° 291° (WNW) 1,462 - -50.4°
Maximum altitude 00:01:16 14° 326° (NW) 1,226 - -50.6°
Drops below altitude 10° 00:03:10 10° 2° (N) 1,463 - -50.8°
Sets 00:05:58 0° 28° (NNE) 2,324 - -51.1°
